Location: Bathurst
(33.4193°S, 149.5775°E)
Time: 00:40:25
(UTC+10:00)

A-11 Canister half - Pass Details

Date: 15 June 2021
Orbit: 1513 x 1687 km, 47.2° (Epoch: 28 July)

Event Time Altitude Azimuth Distance (km) Brightness Sun altitude
Rises 22:04:44 0° 239° (WSW) 4,814 12.0 -62.4°
Reaches altitude 10° 22:08:03 10° 232° (SW) 3,852 11.3 -63.0°
Enters shadow 22:08:25 11° 231° (SW) 3,751 11.2 -63.1°
